Kosmos-2362

operational
NORAD ID: 25593 Int'l Des: 1998-077 Owner: VKSR/IACG Country: RU Constellation: GLONASS
MEOCIRCULAR

About Kosmos-2362

Description loading...

Live Position

Loading 3D Globe...

Upcoming Passes

Altitude History

Altitude vs Time

uPlot chart will show altitude changes over time

Two-Line Element Set

1 25593U 98077A 25304.75947602 .00000012 00000-0 00000+0 0 9991
2 25593 64.1807 68.1755 0030392 54.0248 307.3364 2.13102488208795
Epoch: Oct 31, 2025 • Age: 28 hours

Current Status

Altitude 19187.2 km
Velocity 3.94 km/s
Sub-Earth Point -8.70°S, 128.6°W
Launch Date Dec 30, 1998
Age 26.8 years
Type other

Technical Details

Classification Payload
Mass 1300.00 kg
Dry Mass 1200.00 kg
Total Mass 1300.00 kg
Length 4.00 m
Diameter 1.50 m
Span 7.80 m
Shape Cyl + Ant + 2 Pan
Manufacturer POL
Bus Type Uragan
Phase Status In Orbit
Owner/State VKSR/IACG/RU

Large Constellations

Loading constellations...